Dalaman, Turkey

10:40 PM EEST on August 25, 2016 (GMT +0300)
Dalaman

Weather History for LTBS - November, 2011

Change the Weather History Date:

Friday, November 18, 2011

  Actual Average Record
Temperature  
Mean Temperature 54 °F -  
Max Temperature 63 °F 63 °F 77 °F (1996)
Min Temperature 44 °F 46 °F 42 °F (2001)
Degree Days  
Heating Degree Days 12    
Growing Degree Days 4 (Base 50)    
Moisture  
Dew Point 36 °F    
Average Humidity 52    
Maximum Humidity 76    
Minimum Humidity 27    
Precipitation  
Precipitation 0.00 in - - ()
Sea Level Pressure  
Sea Level Pressure 29.99 in    
Wind  
Wind Speed 8 mph ()    
Max Wind Speed 14 mph    
Max Gust Speed -    
Visibility 6.2 miles    
Events      
Averages and records for this station are not official NWS values.
T = Trace of Precipitation, MM = Missing Value Source: Averaged Metar Reports

Daily Weather History Graph

Daily Weather History Graph

Search for Another Location

Airport or City:

Trip Planner

Search our weather history database for the weather conditions in past years. The results will help you decide how hot, cold, wet, or windy it might be!

Date:

Astronomy

Nov. 18, 2011 Rise Set
Actual Time 6:45 AM EET 4:54 PM EET
Civil Twilight 6:17 AM EET 5:21 PM EET
Nautical Twilight 5:46 AM EET 5:53 PM EET
Astronomical Twilight 5:15 AM EET 6:23 PM EET
Moon 11:55 PM EET (11/18) 12:18 PM EET (11/18)
Length of Visible Light 11h 04m
Length of Day
10h 08m
Waning Gibbous, 52% of the Moon is Illuminated
Nov 18
Waning Gibbous
Nov 18
Last Quarter
Nov 25
New
Dec 2
First Quarter
Dec 10
Full

Hourly Weather History & Observations

Time (EET) Temp. Windchill Dew Point Humidity Pressure Visibility Wind Dir Wind Speed Gust Speed Precip Events Conditions
12:20 AM 53.6 °F - 33.8 °F 47% 29.98 in - North 11.5 mph - N/A   Clear
12:50 AM 53.6 °F - 33.8 °F 47% 29.98 in - North 12.7 mph - N/A   Clear
1:20 AM 51.8 °F - 33.8 °F 50% 29.98 in - North 9.2 mph - N/A   Clear
1:50 AM 51.8 °F - 33.8 °F 50% 29.98 in 6.2 mi North 9.2 mph - N/A   Partly Cloudy
2:00 AM 51 °F - 34 °F 39% 30.00 in 6 mi North 9.2 mph - -   Scattered Clouds
2:20 AM 51.8 °F - 33.8 °F 50% 29.98 in 6.2 mi North 9.2 mph - N/A   Partly Cloudy
2:50 AM 50.0 °F - 33.8 °F 54% 29.98 in 6.2 mi North 8.1 mph - N/A   Partly Cloudy
3:20 AM 50.0 °F - 33.8 °F 54% 29.98 in 6.2 mi North 9.2 mph - N/A   Partly Cloudy
3:50 AM 50.0 °F - 33.8 °F 54% 29.98 in 6.2 mi North 9.2 mph - N/A   Partly Cloudy
4:20 AM 50.0 °F - 33.8 °F 54% 29.98 in 6.2 mi North 6.9 mph - N/A   Partly Cloudy
4:50 AM 48.2 °F - 33.8 °F 58% 29.98 in 6.2 mi North 6.9 mph - N/A   Partly Cloudy
5:20 AM 50.0 °F - 33.8 °F 54% 29.98 in 6.2 mi North 9.2 mph - N/A   Partly Cloudy
5:50 AM 50.0 °F - 33.8 °F 54% 29.98 in 6.2 mi North 9.2 mph - N/A   Partly Cloudy
6:20 AM 46.4 °F 44.3 °F 33.8 °F 62% 29.98 in 6.2 mi NE 4.6 mph - N/A   Partly Cloudy
6:50 AM 50.0 °F - 33.8 °F 54% 29.98 in 6.2 mi North 9.2 mph - N/A   Scattered Clouds
7:20 AM 50.0 °F - 35.6 °F 58% 29.98 in 6.2 mi North 8.1 mph - N/A   Scattered Clouds
7:50 AM 51.8 °F - 33.8 °F 50% 29.98 in 6.2 mi North 12.7 mph - N/A   Scattered Clouds
8:00 AM 51 °F - 34 °F 40% 30.00 in 6 mi North 12.7 mph - -   Scattered Clouds
8:20 AM 53.6 °F - 33.8 °F 47% 29.98 in 6.2 mi North 12.7 mph - N/A   Partly Cloudy
8:50 AM 55.4 °F - 35.6 °F 47% 29.98 in 6.2 mi North 12.7 mph - N/A   Scattered Clouds
9:20 AM 57.2 °F - 33.8 °F 41% 29.98 in 6.2 mi North 12.7 mph - N/A   Scattered Clouds
9:50 AM 57.2 °F - 33.8 °F 41% 30.01 in 6.2 mi North 13.8 mph - N/A   Scattered Clouds
10:20 AM 59.0 °F - 35.6 °F 42% 30.01 in 6.2 mi North 12.7 mph - N/A   Scattered Clouds
10:50 AM 59.0 °F - 35.6 °F 42% 30.01 in 6.2 mi North 10.4 mph - N/A   Scattered Clouds
11:20 AM 62.6 °F - 35.6 °F 37% 29.98 in 6.2 mi North 8.1 mph - N/A   Scattered Clouds
11:50 AM 62.6 °F - 37.4 °F 39% 29.98 in 6.2 mi NNW 4.6 mph - N/A   Scattered Clouds
12:20 PM 62.6 °F - 35.6 °F 37% 29.98 in 6.2 mi Variable 3.5 mph - N/A   Scattered Clouds
12:50 PM 62.6 °F - 35.6 °F 37% 29.98 in 6.2 mi Variable 3.5 mph - N/A   Scattered Clouds
1:20 PM 62.6 °F - 37.4 °F 39% 29.98 in 6.2 mi South 5.8 mph - N/A   Scattered Clouds
1:50 PM 62.6 °F - 37.4 °F 39% 29.95 in 6.2 mi SSW 6.9 mph - N/A   Scattered Clouds
2:00 PM 62 °F - 37 °F 27% 29.97 in 6 mi SSW 6.9 mph - -   Scattered Clouds
2:20 PM 60.8 °F - 37.4 °F 42% 29.98 in 6.2 mi SSW 8.1 mph - N/A   Scattered Clouds
2:50 PM 62.6 °F - 37.4 °F 39% 29.95 in 6.2 mi SSW 5.8 mph - N/A   Scattered Clouds
3:20 PM 62.6 °F - 39.2 °F 42% 29.98 in 6.2 mi WSW 11.5 mph - N/A   Scattered Clouds
3:50 PM 62.6 °F - 39.2 °F 42% 29.98 in 6.2 mi West 10.4 mph - N/A   Scattered Clouds
4:20 PM 60.8 °F - 39.2 °F 45% 29.98 in 6.2 mi West 8.1 mph - N/A   Scattered Clouds
4:50 PM 60.8 °F - 41.0 °F 48% 29.98 in 6.2 mi West 4.6 mph - N/A   Scattered Clouds
5:20 PM 53.6 °F - 41.0 °F 62% 29.98 in - Variable 1.2 mph - N/A   Clear
5:50 PM 51.8 °F - 42.8 °F 71% 29.98 in - ENE 4.6 mph - N/A   Clear
6:20 PM 50.0 °F - 42.8 °F 76% 30.01 in - NNE 3.5 mph - N/A   Clear
6:50 PM 48.2 °F - 41.0 °F 76% 30.01 in - ENE 3.5 mph - N/A   Clear
7:20 PM 50.0 °F - 41.0 °F 71% 30.01 in - North 4.6 mph - N/A   Clear
7:50 PM 50.0 °F - 41.0 °F 71% 30.01 in - North 5.8 mph - N/A   Clear
8:00 PM 50 °F - 40 °F 58% 30.02 in 6 mi North 5.8 mph - -   Scattered Clouds
8:20 PM 48.2 °F - 39.2 °F 71% 30.01 in - NE 4.6 mph - N/A   Clear
8:50 PM 48.2 °F - 39.2 °F 71% 30.01 in - NNE 4.6 mph - N/A   Clear
9:20 PM 44.6 °F 41.4 °F 37.4 °F 76% 30.01 in - NE 5.8 mph - N/A   Clear
9:50 PM 46.4 °F 42.9 °F 37.4 °F 71% 30.01 in - NE 6.9 mph - N/A   Clear
10:20 PM 50.0 °F - 37.4 °F 62% 30.01 in - NE 6.9 mph - N/A   Clear
10:50 PM 46.4 °F 42.9 °F 35.6 °F 66% 30.04 in - North 6.9 mph - N/A   Clear
11:20 PM 48.2 °F - 35.6 °F 62% 30.04 in - ENE 8.1 mph - N/A   Clear
11:50 PM 48.2 °F - 35.6 °F 62% 30.04 in - NE 8.1 mph - N/A   Clear